When you browse on this site, cookies collect data to enhance your experience and personalize the content and advertising you see.
Visit our Privacy Policy to learn more. By continuing to use the site, you agree to this use of cookies and data.
  • In Latvia
  • List of Countries
  • For 7 days
  • Water Temperature
  • Weather Map
  • Weather Widgets
  • user-avatar
    Login

    Hourly Weather Kendari

    Today, 28 February, Friday

    Time Temperature Precipitation Wind Pressure Humidity
    00:00 +26°C° 0.3 mm 2 mps 744 mmHg 95%
    01:00 +26°C° 0.3 mm 2 mps 744 mmHg 95%
    02:00 +26°C° 0 mm 1 mps 743 mmHg 96%
    03:00 +26°C° 0.8 mm 1 mps 743 mmHg 96%
    04:00 +26°C° 0.8 mm 1 mps 743 mmHg 96%
    05:00 +26°C° 0.8 mm 1 mps 743 mmHg 95%
    06:00 +27°C° 1 mm 2 mps 744 mmHg 93%
    07:00 +28°C° 1 mm 2 mps 744 mmHg 91%
    08:00 +29°C° 0 mm 1 mps 745 mmHg 88%
    09:00 +30°C° 0.7 mm 1 mps 744 mmHg 85%
    10:00 +31°C° 0.7 mm 1 mps 744 mmHg 81%
    11:00 +32°C° 0.7 mm 1 mps 744 mmHg 77%
    12:00 +33°C° 0.5 mm 1 mps 743 mmHg 72%
    13:00 +34°C° 0.5 mm 2 mps 742 mmHg 68%
    14:00 +35°C° 0 mm 2 mps 742 mmHg 63%
    15:00 +32°C° 1.1 mm 2 mps 742 mmHg 71%
    16:00 +31°C° 1.1 mm 2 mps 742 mmHg 79%
    17:00 +30°C° 1.1 mm 2 mps 742 mmHg 88%
    18:00 +29°C° 0.9 mm 2 mps 742 mmHg 90%
    19:00 +28°C° 0.9 mm 1 mps 743 mmHg 92%
    20:00 +27°C° 0 mm 1 mps 743 mmHg 93%
    21:00 +27°C° 0.3 mm 1 mps 743 mmHg 93%
    22:00 +27°C° 0.3 mm 1 mps 744 mmHg 93%
    23:00 +26°C° 0.3 mm 1 mps 744 mmHg 93%

    Tomorrow, 29 February, Saturday

    Time Temperature Precipitation Wind Pressure Humidity
    00:00 +26°C° 1.3 mm 1 mps 744 mmHg 94%
    01:00 +26°C° 1.3 mm 2 mps 743 mmHg 95%
    02:00 +26°C° 1.3 mm 2 mps 743 mmHg 96%
    03:00 +26°C° 0.9 mm 2 mps 743 mmHg 96%
    04:00 +26°C° 0.9 mm 2 mps 743 mmHg 96%
    05:00 +26°C° 0.9 mm 2 mps 743 mmHg 96%
    06:00 +27°C° 0.2 mm 2 mps 744 mmHg 93%
    07:00 +27°C° 0.2 mm 2 mps 744 mmHg 91%
    08:00 +28°C° 0.2 mm 2 mps 744 mmHg 89%
    09:00 +30°C° 0 mm 2 mps 744 mmHg 81%
    10:00 +31°C° 0 mm 2 mps 744 mmHg 74%
    11:00 +34°C° 0 mm 3 mps 744 mmHg 67%
    12:00 +34°C° 0.3 mm 3 mps 743 mmHg 68%
    13:00 +34°C° 0.3 mm 3 mps 743 mmHg 69%
    14:00 +33°C° 0.3 mm 3 mps 742 mmHg 69%
    15:00 +33°C° 0.3 mm 3 mps 742 mmHg 73%
    16:00 +31°C° 0.3 mm 3 mps 742 mmHg 76%
    17:00 +30°C° 0.3 mm 3 mps 742 mmHg 79%
    18:00 +29°C° 0.2 mm 3 mps 742 mmHg 83%
    19:00 +28°C° 0.2 mm 2 mps 743 mmHg 87%
    20:00 +27°C° 0.2 mm 2 mps 743 mmHg 91%
    21:00 +27°C° 1 mm 2 mps 744 mmHg 92%
    22:00 +27°C° 1 mm 2 mps 744 mmHg 93%
    23:00 +27°C° 1 mm 2 mps 744 mmHg 95%

    Day after tomorrow, 1 March, Sunday

    Time Temperature Precipitation Wind Pressure Humidity
    00:00 +26°C° 0.6 mm 2 mps 744 mmHg 95%
    01:00 +26°C° 0.6 mm 2 mps 743 mmHg 95%
    02:00 +25°C° 0.6 mm 2 mps 743 mmHg 95%
    03:00 +25°C° 0.3 mm 2 mps 743 mmHg 95%
    04:00 +25°C° 0.3 mm 1 mps 743 mmHg 95%
    05:00 +25°C° 0.3 mm 1 mps 743 mmHg 95%
    06:00 +26°C° 0 mm 1 mps 743 mmHg 92%
    07:00 +27°C° 0 mm 1 mps 744 mmHg 89%
    08:00 +28°C° 0 mm 1 mps 745 mmHg 87%
    09:00 +30°C° 0 mm 1 mps 744 mmHg 78%
    10:00 +32°C° 0 mm 1 mps 744 mmHg 70%
    11:00 +35°C° 0 mm 2 mps 744 mmHg 61%
    12:00 +35°C° 0.1 mm 2 mps 743 mmHg 61%
    13:00 +35°C° 0.1 mm 2 mps 743 mmHg 61%
    14:00 +35°C° 0.1 mm 2 mps 742 mmHg 60%
    15:00 +34°C° 0.2 mm 2 mps 742 mmHg 66%
    16:00 +32°C° 0.2 mm 2 mps 742 mmHg 71%
    17:00 +31°C° 0.2 mm 2 mps 742 mmHg 77%
    18:00 +30°C° 0.3 mm 2 mps 742 mmHg 81%
    19:00 +29°C° 0.3 mm 1 mps 743 mmHg 85%
    20:00 +28°C° 0.3 mm 1 mps 743 mmHg 89%
    21:00 +27°C° 1.5 mm 1 mps 744 mmHg 90%
    22:00 +27°C° 1.5 mm 1 mps 744 mmHg 91%
    23:00 +27°C° 1.5 mm 1 mps 744 mmHg 93%

    2 March, Monday

    Time Temperature Precipitation Wind Pressure Humidity
    00:00 +27°C° 0.7 mm 1 mps 744 mmHg 94%
    01:00 +26°C° 0.7 mm 2 mps 743 mmHg 94%
    02:00 +26°C° 0.7 mm 2 mps 743 mmHg 95%
    03:00 +26°C° 0.4 mm 2 mps 743 mmHg 96%
    04:00 +26°C° 0.4 mm 2 mps 743 mmHg 96%
    05:00 +26°C° 0.4 mm 2 mps 743 mmHg 96%
    06:00 +27°C° 0.1 mm 2 mps 744 mmHg 94%
    07:00 +27°C° 0.1 mm 2 mps 744 mmHg 92%
    08:00 +28°C° 0.1 mm 1 mps 745 mmHg 90%
    09:00 +30°C° 0.1 mm 1 mps 745 mmHg 79%
    10:00 +32°C° 0.1 mm 1 mps 745 mmHg 69%
    11:00 +33°C° 0.1 mm 0 mps 745 mmHg 59%
    12:00 +33°C° 0.7 mm 1 mps 744 mmHg 66%
    13:00 +33°C° 0.7 mm 3 mps 743 mmHg 73%
    14:00 +32°C° 0.7 mm 4 mps 743 mmHg 80%
    15:00 +30°C° 0.7 mm 3 mps 743 mmHg 84%
    16:00 +30°C° 0.7 mm 2 mps 742 mmHg 87%
    17:00 +29°C° 0.7 mm 1 mps 742 mmHg 91%
    18:00 +28°C° 1 mm 1 mps 743 mmHg 92%
    19:00 +28°C° 1 mm 1 mps 744 mmHg 93%
    20:00 +27°C° 1 mm 1 mps 745 mmHg 94%
    21:00 +26°C° 0.8 mm 2 mps 745 mmHg 94%
    22:00 +26°C° 0.8 mm 3 mps 745 mmHg 95%
    23:00 +26°C° 0.8 mm 3 mps 745 mmHg 96%

    3 March, Tuesday

    Time Temperature Precipitation Wind Pressure Humidity
    00:00 +26°C° 0.1 mm 3 mps 744 mmHg 96%
    01:00 +26°C° 0.1 mm 3 mps 744 mmHg 96%
    02:00 +25°C° 0.1 mm 3 mps 744 mmHg 96%
    03:00 +25°C° 0 mm 3 mps 744 mmHg 96%
    04:00 +26°C° 0 mm 3 mps 744 mmHg 95%
    05:00 +26°C° 0 mm 2 mps 743 mmHg 95%
    06:00 +26°C° 0 mm 2 mps 744 mmHg 93%
    07:00 +27°C° 0 mm 2 mps 745 mmHg 91%
    08:00 +27°C° 0 mm 3 mps 745 mmHg 88%
    09:00 +29°C° 0 mm 2 mps 745 mmHg 82%
    10:00 +30°C° 0 mm 2 mps 745 mmHg 77%
    11:00 +31°C° 0 mm 2 mps 744 mmHg 71%
    12:00 +32°C° 0.6 mm 2 mps 744 mmHg 68%
    13:00 +34°C° 0.6 mm 2 mps 743 mmHg 66%
    14:00 +34°C° 0.6 mm 2 mps 743 mmHg 63%
    15:00 +32°C° 0.7 mm 2 mps 743 mmHg 68%
    16:00 +31°C° 0.7 mm 2 mps 743 mmHg 74%
    17:00 +30°C° 0.7 mm 2 mps 743 mmHg 80%
    18:00 +29°C° 0.4 mm 2 mps 743 mmHg 84%
    19:00 +28°C° 0.4 mm 2 mps 744 mmHg 88%
    20:00 +26°C° 0.4 mm 2 mps 745 mmHg 92%
    21:00 +26°C° 0.1 mm 2 mps 745 mmHg 92%
    22:00 +26°C° 0.1 mm 2 mps 745 mmHg 93%
    23:00 +26°C° 0.1 mm 2 mps 745 mmHg 93%

    4 March, Wednesday

    Time Temperature Precipitation Wind Pressure Humidity
    00:00 +26°C° 0.3 mm 2 mps 744 mmHg 94%
    01:00 +26°C° 0.3 mm 2 mps 744 mmHg 95%
    02:00 +26°C° 0.3 mm 1 mps 743 mmHg 95%
    03:00 +26°C° 0.5 mm 1 mps 743 mmHg 96%
    04:00 +26°C° 0.5 mm 1 mps 743 mmHg 96%
    05:00 +25°C° 0.5 mm 1 mps 743 mmHg 97%
    06:00 +26°C° 0.5 mm 1 mps 744 mmHg 94%
    07:00 +27°C° 0.5 mm 1 mps 744 mmHg 92%
    08:00 +28°C° 0.5 mm 1 mps 745 mmHg 89%
    09:00 +29°C° 1 mm 1 mps 744 mmHg 85%
    10:00 +31°C° 1 mm 1 mps 744 mmHg 81%
    11:00 +32°C° 1 mm 1 mps 744 mmHg 76%
    12:00 +31°C° 1.5 mm 1 mps 743 mmHg 79%
    13:00 +31°C° 1.5 mm 1 mps 742 mmHg 81%
    14:00 +31°C° 1.5 mm 2 mps 742 mmHg 84%
    15:00 +30°C° 1.5 mm 1 mps 742 mmHg 86%
    16:00 +30°C° 1.5 mm 1 mps 742 mmHg 88%
    17:00 +29°C° 1.5 mm 1 mps 742 mmHg 89%
    18:00 +28°C° 0.2 mm 2 mps 742 mmHg 91%
    19:00 +28°C° 0.2 mm 2 mps 743 mmHg 92%
    20:00 +27°C° 0.2 mm 2 mps 744 mmHg 93%
    21:00 +26°C° 1.3 mm 3 mps 744 mmHg 94%
    22:00 +26°C° 1.3 mm 3 mps 744 mmHg 95%
    23:00 +26°C° 1.3 mm 3 mps 744 mmHg 96%
    Show more